SQ5OUZ-1 Weather Reports


time (UTC)temp
C
wind
direction
speed
KPH
gust
KPH
rain 1hr
cm
rain 24hr
cm
rain mn
cm
humidity
%
barometer
mb
20260507003935 16 0 0.0 0.0 0.00 0.00 0.00 66 1007.6
20260507002432 16 0 0.0 0.0 0.00 0.00 0.00 64 1007.6
20260507000929 16 0 0.0 0.0 0.00 0.00 0.00 63 1007.6
20260506235425 16 0 0.0 0.0 0.00 0.00 0.00 63 1007.8
20260506233922 16 0 0.0 0.0 0.00 0.00 0.00 63 1007.7
20260506232419 16 0 0.0 0.0 0.00 0.00 0.00 61 1007.7
20260506230916 16 0 0.0 0.0 0.00 0.00 0.00 61 1007.6
20260506225412 17 0 0.0 0.0 0.00 0.00 0.00 58 1007.4
20260506223909 17 0 0.0 0.0 0.00 0.00 0.00 56 1007.4
20260506222406 17 0 0.0 0.0 0.00 0.00 0.00 56 1007.4
20260506220903 17 0 0.0 0.0 0.00 0.00 0.00 55 1007.5
20260506215359 17 0 0.0 0.0 0.00 0.00 0.00 55 1007.4
20260506213856 17 0 0.0 0.0 0.00 0.00 0.00 54 1007.5
20260506212353 17 0 0.0 0.0 0.00 0.00 0.00 54 1007.6
20260506210850 18 0 0.0 0.0 0.00 0.00 0.00 55 1007.8
20260506205346 18 0 0.0 0.0 0.00 0.00 0.00 56 1007.8
20260506203842 18 0 0.0 0.0 0.00 0.00 0.00 57 1008.0
20260506202339 18 0 0.0 0.0 0.00 0.00 0.00 58 1008.1
20260506200836 19 0 0.0 0.0 0.00 0.00 0.00 52 1008.0
20260506195332 20 0 0.0 0.0 0.00 0.00 0.00 51 1007.8
20260506193829 20 0 0.0 0.0 0.00 0.00 0.00 46 1007.9
20260506192325 21 0 0.0 0.0 0.00 0.00 0.00 43 1007.4
20260506190822 21 0 0.0 0.0 0.00 0.00 0.00 41 1007.3
20260506185318 21 0 0.0 0.0 0.00 0.00 0.00 38 1007.2
20260506183815 21 0 0.0 0.0 0.00 0.00 0.00 38 1007.2
20260506182312 21 0 0.0 0.0 0.00 0.00 0.00 38 1007.0
20260506180808 21 0 0.0 0.0 0.00 0.00 0.00 37 1006.9
20260506175306 22 0 0.0 0.0 0.00 0.00 0.00 37 1006.7
20260506173802 22 0 0.0 0.0 0.00 0.00 0.00 37 1006.9
20260506172259 23 0 0.0 0.0 0.00 0.00 0.00 35 1006.8
20260506170755 23 0 0.0 0.0 0.00 0.00 0.00 34 1006.7
20260506164305 24 0 0.0 0.0 0.00 0.00 0.00 33 1006.6
20260506162802 24 0 0.0 0.0 0.00 0.00 0.00 33 1006.5
20260506161258 24 0 0.0 0.0 0.00 0.00 0.00 32 1006.5
20260506155754 25 0 0.0 0.0 0.00 0.00 0.00 32 1006.5
20260506154251 25 0 0.0 0.0 0.00 0.00 0.00 31 1006.6
20260506152748 25 0 0.0 0.0 0.00 0.00 0.00 31 1006.6
20260506151244 25 0 0.0 0.0 0.00 0.00 0.00 30 1006.7
20260506145741 26 0 0.0 0.0 0.00 0.00 0.00 31 1006.8
20260506144238 25 0 0.0 0.0 0.00 0.00 0.00 32 1006.9
20260506142735 25 0 0.0 0.0 0.00 0.00 0.00 32 1006.9
20260506141231 25 0 0.0 0.0 0.00 0.00 0.00 31 1006.9
20260506135728 26 0 0.0 0.0 0.00 0.00 0.00 31 1007.0
20260506134225 26 0 0.0 0.0 0.00 0.00 0.00 31 1006.9
20260506132722 26 0 0.0 0.0 0.00 0.00 0.00 31 1006.9
20260506131218 26 0 0.0 0.0 0.00 0.00 0.00 32 1006.9
20260506125715 26 0 0.0 0.0 0.00 0.00 0.00 31 1006.9
20260506124212 26 0 0.0 0.0 0.00 0.00 0.00 32 1006.8
20260506122709 26 0 0.0 0.0 0.00 0.00 0.00 32 1007.1
20260506121205 26 0 0.0 0.0 0.00 0.00 0.00 33 1007.1
20260506115702 26 0 0.0 0.0 0.00 0.00 0.00 32 1006.9
20260506114159 26 0 0.0 0.0 0.00 0.00 0.00 32 1007.0
20260506112655 26 0 0.0 0.0 0.00 0.00 0.00 32 1006.9
20260506111152 26 0 0.0 0.0 0.00 0.00 0.00 32 1006.8
20260506105649 27 0 0.0 0.0 0.00 0.00 0.00 31 1006.8
20260506104146 27 0 0.0 0.0 0.00 0.00 0.00 30 1006.6
20260506102643 27 0 0.0 0.0 0.00 0.00 0.00 29 1006.6
20260506101139 28 0 0.0 0.0 0.00 0.00 0.00 27 1006.6
20260506095636 27 0 0.0 0.0 0.00 0.00 0.00 27 1006.6
20260506094132 28 0 0.0 0.0 0.00 0.00 0.00 25 1006.6
20260506092628 28 0 0.0 0.0 0.00 0.00 0.00 25 1006.6
20260506091125 30 0 0.0 0.0 0.00 0.00 0.00 22 1006.6
20260506085622 30 0 0.0 0.0 0.00 0.00 0.00 22 1006.5
20260506084119 30 0 0.0 0.0 0.00 0.00 0.00 22 1006.6
20260506082615 30 0 0.0 0.0 0.00 0.00 0.00 23 1006.5
20260506081112 29 0 0.0 0.0 0.00 0.00 0.00 23 1006.5
20260506072602 30 0 0.0 0.0 0.00 0.00 0.00 22 1006.7
20260506071059 30 0 0.0 0.0 0.00 0.00 0.00 23 1006.7
20260506061046 25 0 0.0 0.0 0.00 0.00 0.00 29 1006.9
20260506051033 18 0 0.0 0.0 0.00 0.00 0.00 41 1006.9
20260506044027 20 0 0.0 0.0 0.00 0.00 0.00 36 1006.9
20260506042523 17 0 0.0 0.0 0.00 0.00 0.00 41 1007.1
20260506041020 15 0 0.0 0.0 0.00 0.00 0.00 46 1007.3
20260506035517 14 0 0.0 0.0 0.00 0.00 0.00 49 1007.2
20260506034014 13 0 0.0 0.0 0.00 0.00 0.00 50 1007.0
20260506032510 13 0 0.0 0.0 0.00 0.00 0.00 50 1007.1
20260506031007 13 0 0.0 0.0 0.00 0.00 0.00 49 1007.1
20260506025504 14 0 0.0 0.0 0.00 0.00 0.00 48 1007.2
20260506024001 15 0 0.0 0.0 0.00 0.00 0.00 46 1007.2
20260506022457 15 0 0.0 0.0 0.00 0.00 0.00 44 1007.1
20260506020954 15 0 0.0 0.0 0.00 0.00 0.00 43 1007.3
20260506015451 16 0 0.0 0.0 0.00 0.00 0.00 41 1007.3
20260506013947 16 0 0.0 0.0 0.00 0.00 0.00 38 1007.3
20260506012444 17 0 0.0 0.0 0.00 0.00 0.00 37 1007.4
20260506010941 17 0 0.0 0.0 0.00 0.00 0.00 36 1007.3
20260506005438 17 0 0.0 0.0 0.00 0.00 0.00 37 1007.3